Weather History for Frankfort, KY

Change the Weather History Date:

Wednesday, January 25, 2012

  Actual Average Record
Temperature  
Mean Temperature 31 °F 33 °F  
Max Temperature 38 °F 42 °F 72 °F (1972)
Min Temperature 24 °F 24 °F -18 °F (1963)
Degree Days  
Heating Degree Days 34 32  
Month to date heating degree days 730 819  
Since 1 July heating degree days 2352 2651  
Cooling Degree Days 0 0  
Month to date cooling degree days 0 0  
Year to date cooling degree days 0 0  
Moisture  
Dew Point 32 °F    
Average Humidity 87    
Maximum Humidity 92    
Minimum Humidity 82    
Precipitation  
Precipitation 0.14 in 0.08 in 1.30 in (1997)
Month to date precipitation 2.53 2.67  
Year to date precipitation 2.53 2.67  
Sea Level Pressure  
Sea Level Pressure 30.24 in    
Wind  
Wind Speed 6 mph (NE)    
Max Wind Speed 12 mph    
Max Gust Speed 16 mph    
Visibility 5 miles    
Events Rain    
T = Trace of Precipitation, MM = Missing Value Source: NWS Daily Summary

Daily Weather History Graph

Daily Weather History Graph

Search for Another Location

Airport:

Trip Planner

Search our weather history database for the weather conditions in past years. The results will help you decide how hot, cold, wet, or windy it might be!

Date:

Astronomy

Jan. 25, 2012 Rise Set
Actual Time 7:50 AM EST 5:53 PM EST
Civil Twilight 7:21 AM EST 6:22 PM EST
Nautical Twilight 6:49 AM EST 6:54 PM EST
Astronomical Twilight 6:18 AM EST 7:25 PM EST
Moon 8:52 AM EST (1/25) 8:42 PM EST (1/25)
Length of Visible Light 11h 00m
Length of Day
10h 03m
Waxing Crescent, 6% of the Moon is Illuminated
Jan 25
Waxing Crescent
Jan 30
First Quarter
Feb 7
Full
Feb 14
Last Quarter
Feb 21
New

Hourly Weather History & Observations

Time (EST) Temp. Windchill Dew Point Humidity Pressure Visibility Wind Dir Wind Speed Gust Speed Precip Events Conditions
1:53 AM 26.1 °F - 23.0 °F 88% 30.35 in 5.0 mi Calm Calm - N/A   Partly Cloudy
2:13 AM 26.6 °F - 24.8 °F 93% 30.33 in 5.0 mi Calm Calm - N/A   Mostly Cloudy
2:27 AM 28.4 °F - 26.6 °F 93% 30.34 in 5.0 mi Calm Calm - N/A   Overcast
2:53 AM 30.0 °F 25.2 °F 28.0 °F 92% 30.34 in 5.0 mi ENE 4.6 mph - N/A   Overcast
3:53 AM 30.0 °F 22.4 °F 28.0 °F 92% 30.30 in 5.0 mi ENE 8.1 mph - N/A   Overcast
4:53 AM 30.9 °F 23.5 °F 28.0 °F 89% 30.31 in 5.0 mi ENE 8.1 mph - N/A   Overcast
5:53 AM 30.9 °F 25.2 °F 28.9 °F 92% 30.34 in 5.0 mi East 5.8 mph - N/A   Overcast
6:53 AM 30.9 °F 25.2 °F 28.0 °F 89% 30.34 in 5.0 mi ENE 5.8 mph - N/A   Overcast
7:27 AM 30.2 °F 23.4 °F 28.4 °F 93% 30.30 in 5.0 mi ENE 6.9 mph - N/A   Partly Cloudy
8:53 AM 32.0 °F 25.6 °F 28.9 °F 88% 30.32 in 4.0 mi ENE 6.9 mph - N/A   Scattered Clouds
9:53 AM 33.1 °F 26.1 °F 30.0 °F 89% 30.29 in 4.0 mi East 8.1 mph - N/A   Scattered Clouds
10:28 AM 33.8 °F 25.3 °F 30.2 °F 87% 30.26 in 5.0 mi ENE 11.5 mph - N/A   Mostly Cloudy
10:53 AM 36.0 °F 29.6 °F 30.9 °F 82% 30.28 in 5.0 mi East 8.1 mph - N/A   Haze
11:42 AM 35.6 °F 30.7 °F 30.2 °F 81% 30.26 in 5.0 mi ENE 5.8 mph - N/A   Haze
11:53 AM 36.0 °F 30.3 °F 30.9 °F 82% 30.27 in 6.0 mi Variable 6.9 mph - N/A   Haze
12:53 PM 37.9 °F 32.1 °F 32.0 °F 79% 30.22 in 6.0 mi ENE 8.1 mph - N/A   Haze
1:53 PM 37.9 °F 34.4 °F 32.0 °F 79% 30.21 in 6.0 mi NNE 4.6 mph - N/A   Haze
2:53 PM 37.9 °F 33.5 °F 34.0 °F 86% 30.20 in 4.0 mi NE 5.8 mph - 0.02 in Rain Light Rain
3:53 PM 37.9 °F 32.1 °F 35.1 °F 89% 30.16 in 3.0 mi North 8.1 mph 16.1 mph 0.04 in Rain Light Rain
4:53 PM 37.9 °F - 36.0 °F 93% 30.20 in 3.0 mi Calm Calm - 0.04 in Rain Light Rain
5:19 PM 37.4 °F 32.8 °F 35.6 °F 93% 30.18 in 2.5 mi NNW 5.8 mph - 0.01 in Rain Light Rain
5:53 PM 37.0 °F 33.3 °F 36.0 °F 96% 30.19 in 4.0 mi North 4.6 mph - 0.02 in   Overcast
6:53 PM 37.0 °F 34.5 °F 36.0 °F 96% 30.19 in 4.0 mi NNE 3.5 mph - 0.02 in   Overcast
7:39 PM 37.4 °F 33.8 °F 35.6 °F 93% 30.14 in 4.0 mi ENE 4.6 mph - 0.00 in   Overcast
7:53 PM 37.0 °F 32.4 °F 36.0 °F 96% 30.16 in 4.0 mi ENE 5.8 mph - 0.00 in   Overcast
8:53 PM 37.0 °F 33.3 °F 36.0 °F 96% 30.15 in 4.0 mi NE 4.6 mph - N/A   Mostly Cloudy
9:53 PM 37.0 °F 31.6 °F 36.0 °F 96% 30.12 in 4.0 mi East 6.9 mph - N/A   Overcast
10:53 PM 37.9 °F 33.5 °F 36.0 °F 93% 30.11 in 5.0 mi ENE 5.8 mph - N/A   Overcast
11:53 PM 37.9 °F 33.5 °F 36.0 °F 93% 30.08 in 5.0 mi ENE 5.8 mph - N/A   Overcast